SQ7FJB-2 Weather Reports


time (UTC)temp
F
wind
direction
speed
knots
gust
knots
rain 1hr
in
rain 24hr
in
rain mn
in
humidity
%
barometer
mb
20260508053326 47 312 0.9 0.9 0.00 0.00 0.00 90 1015.5
20260508052313 47 348 0.0 0.0 0.00 0.00 0.00 91 1015.5
20260508051314 47 3 0.9 0.9 0.00 0.00 0.00 90 1015.5
20260508050301 48 42 0.9 0.9 0.00 0.00 0.00 89 1015.6
20260508045301 47 354 0.0 0.0 0.00 0.00 0.00 89 1015.5
20260508044248 47 348 0.0 0.0 0.00 0.00 0.00 89 1015.4
20260508043248 47 355 0.0 0.0 0.00 0.00 0.00 90 1015.4
20260508042248 47 349 0.0 0.0 0.00 0.00 0.00 90 1015.3
20260508041248 47 336 0.0 0.0 0.00 0.00 0.00 90 1015.2
20260508040235 47 0 0.0 0.0 0.00 0.00 0.00 90 1015.2
20260508035235 47 342 0.9 0.9 0.00 0.00 0.00 90 1015.1
20260508034223 47 336 0.0 0.0 0.00 0.00 0.00 90 1014.9
20260508033223 46 348 0.0 0.0 0.00 0.00 0.00 90 1014.8
20260508032223 46 352 0.9 0.9 0.00 0.00 0.00 90 1014.7
20260508031210 46 6 0.0 0.0 0.00 0.00 0.00 90 1014.7
20260508030211 47 354 0.9 0.9 0.00 0.00 0.00 90 1014.7
20260508025158 47 6 0.9 0.9 0.00 0.00 0.00 90 1014.7
20260508024158 47 0 0.9 0.9 0.00 0.00 0.00 90 1014.7
20260508023158 47 312 0.9 0.9 0.00 0.00 0.00 90 1014.7
20260508022145 47 342 0.9 0.9 0.00 0.00 0.00 90 1014.5
20260508021145 47 288 0.0 0.0 0.00 0.00 0.00 90 1014.5
20260508020146 47 342 0.0 0.0 0.00 0.00 0.00 91 1014.5
20260508015133 47 347 0.9 0.9 0.00 0.00 0.00 92 1014.5
20260508014133 47 336 0.0 0.0 0.00 0.00 0.00 92 1014.5
20260508013133 47 337 0.0 0.0 0.00 0.00 0.00 92 1014.5
20260508012120 47 0 0.0 0.0 0.00 0.00 0.00 93 1014.5
20260508011120 47 348 0.0 0.0 0.00 0.00 0.00 93 1014.6
20260508010120 48 343 0.0 0.0 0.00 0.00 0.00 92 1014.6
20260508005108 48 356 1.7 1.7 0.00 0.00 0.00 91 1014.5
20260508004108 48 348 0.0 0.0 0.00 0.00 0.00 91 1014.5
20260508003056 49 9 0.9 0.9 0.00 0.00 0.00 90 1014.4
20260508002055 49 330 0.0 0.0 0.00 0.00 0.00 90 1014.5
20260508001046 49 338 0.0 0.0 0.00 0.00 0.00 89 1014.5
20260508000043 49 276 0.0 0.0 0.00 0.00 0.00 89 1014.3
20260507235043 49 342 0.0 0.0 0.00 0.00 0.00 89 1014.2
20260507234043 49 312 0.0 0.0 0.00 0.00 0.00 89 1014.3
20260507233030 49 316 0.0 0.0 0.00 0.00 0.00 90 1014.1
20260507232030 49 294 0.0 0.0 0.00 0.00 0.00 89 1014.2
20260507231030 49 334 0.0 0.0 0.00 0.00 0.00 90 1014.3
20260507230030 49 354 0.0 0.0 0.00 0.00 0.00 90 1014.2
20260507225018 49 304 1.7 1.7 0.00 0.04 0.00 89 1014.2
20260507224018 49 340 0.9 0.9 0.00 0.04 0.00 89 1014.2
20260507223018 50 246 0.9 0.9 0.00 0.04 0.00 89 1014.3
20260507222005 50 312 0.0 0.0 0.00 0.04 0.00 88 1014.1
20260507221005 50 0 0.9 0.9 0.00 0.04 0.00 88 1013.9
20260507220005 50 348 0.0 0.0 0.00 0.04 0.00 89 1014.0
20260507214953 50 329 0.0 0.0 0.00 0.04 0.00 88 1014.0
20260507213953 50 357 0.0 0.0 0.00 0.04 0.00 88 1014.0
20260507212953 50 330 0.0 0.0 0.00 0.04 0.00 88 1013.9
20260507211941 50 342 0.9 0.9 0.00 0.04 0.00 88 1013.9
20260507210940 50 342 0.0 0.0 0.00 0.04 0.00 88 1014.0
20260507205940 50 6 0.0 0.0 0.00 0.04 0.00 88 1013.9
20260507204928 50 34 0.9 0.9 0.00 0.04 0.00 88 1013.9
20260507203916 50 276 0.0 0.0 0.00 0.04 0.00 88 1013.9
20260507202903 51 72 0.9 0.9 0.00 0.04 0.00 88 1013.7
20260507201903 51 330 0.0 0.0 0.00 0.04 0.00 89 1013.7
20260507200903 51 354 0.9 0.9 0.00 0.04 0.00 89 1013.7
20260507195850 51 30 1.7 1.7 0.00 0.04 0.00 89 1013.5
20260507194838 51 114 0.9 0.9 0.00 0.04 0.00 89 1013.4
20260507193837 51 340 0.0 0.0 0.00 0.04 0.00 90 1013.4
20260507192838 51 18 0.0 0.0 0.00 0.04 0.00 90 1013.1
20260507191825 51 18 0.0 0.0 0.00 0.04 0.00 90 1013.0
20260507190813 51 8 0.9 0.9 0.00 0.04 0.00 90 1013.0
20260507185813 51 318 0.0 0.0 0.00 0.04 0.00 91 1012.8
20260507184800 52 345 0.0 0.0 0.00 0.04 0.00 90 1012.6
20260507183748 52 357 0.0 0.0 0.00 0.04 0.00 90 1012.3
20260507182747 52 344 1.7 1.7 0.00 0.04 0.00 90 1012.2
20260507181747 53 340 1.7 1.7 0.00 0.04 0.00 89 1012.0
20260507180736 53 351 1.7 1.7 0.00 0.04 0.00 89 1012.0
20260507175735 53 328 0.0 0.0 0.00 0.04 0.00 89 1011.9
20260507174735 53 329 0.0 0.0 0.00 0.04 0.00 89 1011.8
20260507173735 54 96 1.7 1.7 0.00 0.04 0.00 88 1011.6
20260507172723 54 18 0.0 0.0 0.00 0.04 0.00 88 1011.7
20260507171712 54 312 0.9 0.9 0.00 0.04 0.00 88 1011.6
20260507170710 55 344 0.9 0.9 0.00 0.04 0.00 88 1011.8
20260507165658 55 345 0.9 0.9 0.00 0.04 0.00 87 1011.5
20260507164659 55 324 1.7 1.7 0.00 0.04 0.00 87 1011.5
20260507163645 56 338 0.9 0.9 0.00 0.04 0.00 87 1011.4
20260507162645 56 327 0.0 0.0 0.00 0.04 0.00 87 1011.0
20260507161645 57 350 0.0 0.0 0.00 0.04 0.00 86 1011.0
20260507160645 57 90 1.7 1.7 0.00 0.04 0.00 86 1011.0
20260507155645 57 324 0.0 0.0 0.00 0.04 0.00 86 1011.0
20260507154632 58 36 2.6 3.5 0.00 0.04 0.00 85 1010.8
20260507153633 58 321 0.0 0.0 0.00 0.04 0.00 85 1010.8
20260507152620 58 348 0.0 0.0 0.01 0.04 0.00 86 1010.7
20260507151608 59 42 0.9 0.9 0.02 0.04 0.00 85 1010.6
20260507150555 60 17 1.7 1.7 0.02 0.04 0.00 86 1010.4
20260507145555 59 305 1.7 1.7 0.02 0.04 0.00 85 1010.6
20260507144543 59 18 1.7 1.7 0.02 0.04 0.00 87 1010.4
20260507143530 59 336 0.9 0.9 0.01 0.03 0.00 84 1010.5
20260507142530 60 12 0.9 0.9 0.00 0.01 0.00 78 1010.6
20260507141517 61 6 0.9 0.9 0.00 0.01 0.00 78 1010.3
20260507140518 62 335 0.0 0.0 0.00 0.01 0.00 76 1010.6
20260507135518 62 341 0.0 0.0 0.00 0.01 0.00 75 1010.6
20260507134517 62 64 0.9 0.9 0.00 0.01 0.00 73 1010.5
20260507133505 62 318 0.0 0.0 0.00 0.01 0.00 73 1010.5
20260507132505 62 11 0.9 0.9 0.00 0.01 0.00 73 1010.3
20260507131505 63 348 2.6 2.6 0.00 0.01 0.00 72 1010.7
20260507130453 63 6 0.0 0.0 0.00 0.01 0.00 75 1010.6
20260507125440 62 282 0.0 0.0 0.00 0.01 0.00 74 1010.5
20260507124427 61 108 0.9 0.9 0.00 0.01 0.00 75 1010.5
20260507123427 61 354 0.0 0.0 0.00 0.01 0.00 77 1010.4
20260507122427 61 6 2.6 3.5 0.00 0.01 0.00 77 1010.5
20260507121427 60 108 0.0 0.0 0.00 0.01 0.00 78 1010.6
20260507120428 59 62 0.0 0.0 0.00 0.01 0.00 81 1010.7
20260507115415 61 215 0.9 0.9 0.00 0.01 0.00 77 1010.8
20260507114415 61 328 0.0 0.0 0.00 0.01 0.00 78 1010.7
20260507113414 60 283 0.9 0.9 0.01 0.01 0.00 81 1010.7
20260507112403 59 346 0.0 0.0 0.01 0.01 0.00 84 1010.7
20260507111402 59 318 0.9 0.9 0.01 0.01 0.00 87 1010.7
20260507110402 58 39 0.0 0.0 0.01 0.01 0.00 88 1010.6
20260507105350 57 57 0.0 0.0 0.01 0.01 0.00 89 1010.6
20260507104350 57 336 0.0 0.0 0.01 0.01 0.00 89 1010.6
20260507103338 56 341 0.0 0.0 0.00 0.00 0.00 89 1010.5
20260507102325 56 355 0.0 0.0 0.00 0.00 0.00 89 1010.4
20260507101312 56 288 0.0 0.0 0.00 0.00 0.00 88 1010.3
20260507100312 57 346 0.0 0.0 0.00 0.00 0.00 88 1010.0
20260507095312 57 84 0.9 0.9 0.00 0.00 0.00 88 1009.9
20260507094300 56 325 0.0 0.0 0.00 0.00 0.00 90 1009.7
20260507093300 56 345 0.0 0.0 0.00 0.00 0.00 91 1009.6
20260507092300 55 334 0.9 0.9 0.00 0.00 0.00 92 1009.6
20260507091248 56 24 0.9 0.9 0.00 0.00 0.00 92 1009.5
20260507090247 56 6 0.0 0.0 0.00 0.00 0.00 91 1009.3
20260507085248 56 341 0.9 0.9 0.00 0.00 0.00 91 1009.0
20260507084247 56 353 0.0 0.0 0.00 0.00 0.00 92 1008.9
20260507083235 56 357 0.0 0.0 0.00 0.00 0.00 91 1008.8
20260507082235 56 6 0.0 0.0 0.00 0.00 0.00 91 1008.7
20260507081222 56 36 1.7 1.7 0.00 0.00 0.00 91 1008.5
20260507080223 56 28 0.0 0.0 0.00 0.00 0.00 91 1008.3
20260507075222 56 340 0.9 0.9 0.00 0.00 0.00 90 1008.2
20260507074210 56 334 0.0 0.0 0.00 0.00 0.00 91 1008.1
20260507073157 56 36 0.9 0.9 0.00 0.00 0.00 92 1008.0
20260507072158 55 336 0.9 0.9 0.00 0.00 0.00 93 1007.9
20260507071157 55 335 0.0 0.0 0.00 0.00 0.00 93 1007.8
20260507070157 55 335 0.0 0.0 0.00 0.00 0.00 93 1007.7
20260507065145 55 341 1.7 1.7 0.00 0.00 0.00 93 1007.7
20260507064145 55 138 0.0 0.0 0.00 0.00 0.00 93 1007.5
20260507063132 56 332 0.9 0.9 0.00 0.00 0.00 93 1007.5
20260507062133 56 354 1.7 1.7 0.00 0.00 0.00 93 1007.3
20260507061132 56 334 0.0 0.0 0.00 0.00 0.00 93 1007.3
20260507060132 56 330 0.0 0.0 0.00 0.00 0.00 92 1007.2
20260507055132 57 342 0.0 0.0 0.00 0.00 0.00 91 1007.1
20260507054120 57 13 0.0 0.0 0.00 0.00 0.00 90 1006.8